ACA2533 CYYZ-CYUL

Flight info

Callsign ACA2533
Flight time 0h 48m
Altitude 35000
Route DEDKI5 MIGLO HABBS7
Aircraft A20N/M-SDE2E3FGHIRWXY/LB1

Departure

Time 2026-05-06 23:46
Airport Toronto Pearson International Airport (CYYZ)

Arrival

Time 2026-05-07 00:35
Airport Montreal / Pierre Elliott Trudeau International Airport (CYUL)
Time Latitude Longitude Altitude Speed Heading
2026-05-06 23:24 43.68044 -79.63721 562 ft 0 kts 137°
2026-05-06 23:34 43.68046 -79.63724 571 ft 2 kts 141°
2026-05-06 23:35 43.68058 -79.63735 568 ft 2 kts 160°
2026-05-06 23:35 43.68072 -79.63740 571 ft 2 kts 178°
2026-05-06 23:35 43.68086 -79.63739 566 ft 2 kts 196°
2026-05-06 23:35 43.68099 -79.63731 569 ft 2 kts 215°
2026-05-06 23:36 43.68101 -79.63729 569 ft 0 kts 218°
2026-05-06 23:38 43.68097 -79.63734 561 ft 3 kts 218°
2026-05-06 23:38 43.68066 -79.63767 561 ft 8 kts 221°
2026-05-06 23:39 43.68009 -79.63832 560 ft 13 kts 209°
2026-05-06 23:39 43.67918 -79.63894 563 ft 17 kts 219°
2026-05-06 23:39 43.67903 -79.64041 563 ft 18 kts 310°
2026-05-06 23:39 43.67995 -79.64164 560 ft 19 kts 317°
2026-05-06 23:40 43.68094 -79.64292 564 ft 20 kts 316°
2026-05-06 23:40 43.68190 -79.64421 569 ft 19 kts 316°
2026-05-06 23:40 43.68288 -79.64554 564 ft 20 kts 318°
2026-05-06 23:40 43.68373 -79.64662 563 ft 0 kts 316°
2026-05-06 23:41 43.68378 -79.64684 570 ft 0 kts 278°
2026-05-06 23:41 43.68368 -79.64722 568 ft 2 kts 219°
2026-05-06 23:41 43.68338 -79.64711 568 ft 14 kts 174°
2026-05-06 23:41 43.68252 -79.64786 571 ft 18 kts 223°
2026-05-06 23:42 43.68152 -79.64928 570 ft 23 kts 226°
2026-05-06 23:42 43.68029 -79.65108 566 ft 28 kts 225°
2026-05-06 23:42 43.67894 -79.65309 565 ft 29 kts 229°
2026-05-06 23:42 43.67756 -79.65510 568 ft 28 kts 226°
2026-05-06 23:43 43.67621 -79.65708 575 ft 28 kts 223°
2026-05-06 23:43 43.67481 -79.65896 572 ft 29 kts 225°
2026-05-06 23:43 43.67412 -79.65996 574 ft 19 kts 226°
2026-05-06 23:43 43.67384 -79.66036 576 ft 2 kts 226°
2026-05-06 23:44 43.67362 -79.66068 575 ft 8 kts 226°
2026-05-06 23:44 43.67319 -79.66131 574 ft 0 kts 226°
2026-05-06 23:44 43.67314 -79.66138 574 ft 4 kts 226°
2026-05-06 23:45 43.67284 -79.66204 576 ft 14 kts 256°
2026-05-06 23:45 43.67338 -79.66321 572 ft 25 kts 325°
2026-05-06 23:45 43.67493 -79.66291 570 ft 25 kts 43°
2026-05-06 23:45 43.67703 -79.66008 574 ft 73 kts 44°
2026-05-06 23:46 43.68226 -79.65261 563 ft 145 kts 45°
2026-05-06 23:46 43.69054 -79.64083 763 ft 190 kts 44°
2026-05-06 23:46 43.70071 -79.62660 1349 ft 214 kts 40°
2026-05-06 23:46 43.71207 -79.61317 2562 ft 220 kts 30°
2026-05-06 23:47 43.72645 -79.60449 3286 ft 234 kts
2026-05-06 23:47 43.74321 -79.60161 3938 ft 250 kts 359°
2026-05-06 23:47 43.76002 -79.60582 4419 ft 247 kts 339°
2026-05-06 23:47 43.77643 -79.61444 3918 ft 263 kts 333°
2026-05-06 23:48 43.79189 -79.62730 3791 ft 249 kts 321°
2026-05-06 23:48 43.80407 -79.64301 3926 ft 239 kts 312°
2026-05-06 23:48 43.81779 -79.65648 4054 ft 246 kts 338°
2026-05-06 23:48 43.83457 -79.65885 4250 ft 258 kts
2026-05-06 23:49 43.85126 -79.64812 5048 ft 270 kts 38°
2026-05-06 23:49 43.86250 -79.62705 6143 ft 280 kts 65°
2026-05-06 23:49 43.86620 -79.60016 7002 ft 292 kts 92°
2026-05-06 23:49 43.86107 -79.57279 7851 ft 298 kts 121°
2026-05-06 23:50 43.84801 -79.55084 8744 ft 296 kts 147°
2026-05-06 23:50 43.81392 -79.51713 10461 ft 313 kts 147°
2026-05-06 23:50 43.79746 -79.49612 10840 ft 340 kts 139°
2026-05-06 23:51 43.78118 -79.47088 11222 ft 362 kts 135°
2026-05-06 23:51 43.76527 -79.44335 12020 ft 369 kts 133°
2026-05-06 23:51 43.74950 -79.41504 12862 ft 374 kts 133°
2026-05-06 23:51 43.73357 -79.38635 13703 ft 379 kts 133°
2026-05-06 23:52 43.71736 -79.35733 14439 ft 383 kts 134°
2026-05-06 23:52 43.70095 -79.32816 15190 ft 386 kts 134°
2026-05-06 23:52 43.68455 -79.29915 15934 ft 390 kts 134°
2026-05-06 23:52 43.66778 -79.26956 16683 ft 393 kts 134°
2026-05-06 23:53 43.65341 -79.23677 17408 ft 408 kts 117°
2026-05-06 23:53 43.64629 -79.19837 18095 ft 421 kts 99°
2026-05-06 23:53 43.64633 -79.15758 18709 ft 429 kts 89°
2026-05-06 23:53 43.64887 -79.11630 19319 ft 433 kts 86°
2026-05-06 23:54 43.65180 -79.07476 19915 ft 437 kts 86°
2026-05-06 23:54 43.65472 -79.03280 20501 ft 442 kts 84°
2026-05-06 23:54 43.65968 -78.99070 21078 ft 447 kts 82°
2026-05-06 23:54 43.66462 -78.94870 21639 ft 451 kts 83°
2026-05-06 23:55 43.66953 -78.90577 22208 ft 455 kts 83°
2026-05-06 23:55 43.67440 -78.86246 22772 ft 459 kts 83°
2026-05-06 23:55 43.67929 -78.81868 23345 ft 463 kts 83°
2026-05-06 23:55 43.68420 -78.77457 23831 ft 467 kts 83°
2026-05-06 23:56 43.68996 -78.73025 24303 ft 472 kts 77°
2026-05-06 23:56 43.70000 -78.68694 24753 ft 476 kts 68°
2026-05-06 23:56 43.71308 -78.64478 25209 ft 479 kts 66°
2026-05-06 23:56 43.72624 -78.60232 25670 ft 482 kts 66°
2026-05-06 23:57 43.73495 -78.57403 25959 ft 484 kts 66°
2026-05-06 23:57 43.74814 -78.53105 26397 ft 487 kts 66°
2026-05-06 23:57 43.76140 -78.48775 26829 ft 490 kts 66°
2026-05-06 23:57 43.77906 -78.42996 27378 ft 494 kts 66°
2026-05-06 23:58 43.79246 -78.38604 27794 ft 497 kts 66°
2026-05-06 23:58 43.80594 -78.34180 28191 ft 500 kts 66°
2026-05-06 23:58 43.81506 -78.31181 28455 ft 502 kts 66°
2026-05-06 23:58 43.82843 -78.26782 28818 ft 504 kts 66°
2026-05-06 23:59 43.84205 -78.22291 29204 ft 506 kts 66°
2026-05-06 23:59 43.85569 -78.17788 29570 ft 509 kts 66°
2026-05-06 23:59 43.86938 -78.13258 29949 ft 511 kts 66°
2026-05-06 23:59 43.88314 -78.08700 30229 ft 514 kts 66°
2026-05-07 00:00 43.90145 -78.02621 30564 ft 519 kts 66°
2026-05-07 00:00 43.91537 -77.97986 30828 ft 522 kts 66°
2026-05-07 00:00 43.92934 -77.93331 31110 ft 525 kts 66°
2026-05-07 00:00 43.93862 -77.90233 31313 ft 526 kts 66°
2026-05-07 00:01 43.95264 -77.85543 31625 ft 527 kts 66°
2026-05-07 00:01 43.96671 -77.80831 31940 ft 529 kts 66°
2026-05-07 00:01 43.98079 -77.76102 32249 ft 530 kts 66°
2026-05-07 00:01 43.99489 -77.71360 32545 ft 532 kts 66°
2026-05-07 00:02 44.00900 -77.66608 32835 ft 533 kts 66°
2026-05-07 00:02 44.02312 -77.61843 32920 ft 533 kts 66°
2026-05-07 00:02 44.05120 -77.52338 32910 ft 531 kts 66°
2026-05-07 00:03 44.08015 -77.42992 32921 ft 528 kts 59°
2026-05-07 00:03 44.11917 -77.34379 32922 ft 526 kts 54°
2026-05-07 00:04 44.15884 -77.25844 32914 ft 524 kts 54°
2026-05-07 00:04 44.19833 -77.17312 32917 ft 524 kts 54°
2026-05-07 00:05 44.23745 -77.08836 32915 ft 523 kts 54°
2026-05-07 00:05 44.27667 -77.00314 32915 ft 522 kts 55°
2026-05-07 00:06 44.31574 -76.91797 32912 ft 521 kts 55°
2026-05-07 00:06 44.35473 -76.83276 32906 ft 520 kts 55°
2026-05-07 00:07 44.39360 -76.74757 32904 ft 520 kts 55°
2026-05-07 00:07 44.43212 -76.66288 32911 ft 519 kts 56°
2026-05-07 00:08 44.47078 -76.57764 32909 ft 519 kts 56°
2026-05-07 00:08 44.50938 -76.49229 32899 ft 518 kts 56°
2026-05-07 00:09 44.54783 -76.40699 32904 ft 518 kts 56°
2026-05-07 00:09 44.58599 -76.32208 32898 ft 517 kts 56°
2026-05-07 00:10 44.62426 -76.23660 32887 ft 517 kts 57°
2026-05-07 00:10 44.65508 -76.14537 32883 ft 518 kts 68°
2026-05-07 00:11 44.68265 -76.05190 32877 ft 518 kts 67°
2026-05-07 00:11 44.71014 -75.95844 32864 ft 517 kts 69°
2026-05-07 00:12 44.72283 -75.91195 32661 ft 517 kts 70°
2026-05-07 00:12 44.73525 -75.86475 32391 ft 514 kts 70°
2026-05-07 00:12 44.74758 -75.81764 32134 ft 511 kts 70°
2026-05-07 00:12 44.75990 -75.77079 31874 ft 510 kts 70°
2026-05-07 00:13 44.77224 -75.72408 31613 ft 508 kts 71°
2026-05-07 00:13 44.78455 -75.67759 31361 ft 506 kts 71°
2026-05-07 00:13 44.79683 -75.63121 31108 ft 504 kts 71°
2026-05-07 00:13 44.80905 -75.58503 30854 ft 503 kts 71°
2026-05-07 00:14 44.82123 -75.53890 30342 ft 503 kts 71°
2026-05-07 00:14 44.83320 -75.49347 29734 ft 500 kts 72°
2026-05-07 00:14 44.84526 -75.44788 29127 ft 493 kts 71°
2026-05-07 00:14 44.85772 -75.40326 28570 ft 486 kts 70°
2026-05-07 00:15 44.87031 -75.35936 28006 ft 480 kts 70°
2026-05-07 00:15 44.88276 -75.31598 27447 ft 474 kts 70°
2026-05-07 00:15 44.89497 -75.27311 26898 ft 468 kts 70°
2026-05-07 00:15 44.90697 -75.23069 26355 ft 464 kts 70°
2026-05-07 00:16 44.91882 -75.18859 25804 ft 459 kts 70°
2026-05-07 00:16 44.93051 -75.14688 25269 ft 455 kts 70°
2026-05-07 00:16 44.94194 -75.10601 24733 ft 452 kts 70°
2026-05-07 00:16 44.95344 -75.06480 24199 ft 449 kts 70°
2026-05-07 00:17 44.96487 -75.02381 23655 ft 447 kts 70°
2026-05-07 00:17 44.97623 -74.98298 23017 ft 446 kts 70°
2026-05-07 00:17 44.98839 -74.94315 22535 ft 440 kts 63°
2026-05-07 00:17 45.00329 -74.90561 21997 ft 436 kts 60°
2026-05-07 00:18 45.01817 -74.86851 21466 ft 432 kts 60°
2026-05-07 00:18 45.03294 -74.83152 20939 ft 429 kts 60°
2026-05-07 00:18 45.04752 -74.79488 20404 ft 426 kts 60°
2026-05-07 00:18 45.06198 -74.75847 19878 ft 424 kts 60°
2026-05-07 00:19 45.07616 -74.72272 19358 ft 421 kts 60°
2026-05-07 00:19 45.09046 -74.68666 18833 ft 419 kts 60°
2026-05-07 00:19 45.10469 -74.65071 18307 ft 418 kts 60°
2026-05-07 00:19 45.11885 -74.61487 17721 ft 416 kts 60°
2026-05-07 00:20 45.13342 -74.57979 17286 ft 410 kts 58°
2026-05-07 00:20 45.14856 -74.54553 16818 ft 411 kts 57°
2026-05-07 00:20 45.16384 -74.51131 16277 ft 410 kts 57°
2026-05-07 00:20 45.17900 -74.47714 15753 ft 407 kts 57°
2026-05-07 00:21 45.19392 -74.44322 15220 ft 404 kts 57°
2026-05-07 00:21 45.20848 -74.40991 14713 ft 401 kts 57°
2026-05-07 00:21 45.22305 -74.37632 14194 ft 398 kts 57°
2026-05-07 00:21 45.23747 -74.34295 13677 ft 396 kts 57°
2026-05-07 00:22 45.25177 -74.30980 13127 ft 392 kts 57°
2026-05-07 00:22 45.26591 -74.27700 12615 ft 387 kts 57°
2026-05-07 00:22 45.27985 -74.24465 12118 ft 382 kts 57°
2026-05-07 00:22 45.29366 -74.21256 11616 ft 378 kts 57°
2026-05-07 00:23 45.30731 -74.18083 11126 ft 374 kts 57°
2026-05-07 00:23 45.32078 -74.14946 10629 ft 370 kts 57°
2026-05-07 00:23 45.33402 -74.11858 10373 ft 359 kts 57°
2026-05-07 00:23 45.34658 -74.08924 10237 ft 346 kts 57°
2026-05-07 00:24 45.35943 -74.06124 10106 ft 331 kts 50°
2026-05-07 00:24 45.37473 -74.03773 9910 ft 319 kts 39°
2026-05-07 00:24 45.39114 -74.01673 9519 ft 316 kts 39°
2026-05-07 00:24 45.40729 -73.99589 9207 ft 309 kts 39°
2026-05-07 00:25 45.42299 -73.97548 8886 ft 304 kts 40°
2026-05-07 00:25 45.43849 -73.95530 8558 ft 299 kts 40°
2026-05-07 00:25 45.45376 -73.93541 8204 ft 295 kts 40°
2026-05-07 00:25 45.46883 -73.91577 7858 ft 292 kts 40°
2026-05-07 00:26 45.48351 -73.89662 7527 ft 288 kts 40°
2026-05-07 00:26 45.49818 -73.87747 7191 ft 284 kts 40°
2026-05-07 00:26 45.51269 -73.85852 6854 ft 281 kts 40°
2026-05-07 00:26 45.52702 -73.83979 6522 ft 278 kts 40°
2026-05-07 00:27 45.54114 -73.82132 6208 ft 274 kts 40°
2026-05-07 00:27 45.55512 -73.80303 5818 ft 272 kts 40°
2026-05-07 00:27 45.56903 -73.78480 5425 ft 271 kts 40°
2026-05-07 00:27 45.58270 -73.76688 5048 ft 269 kts 40°
2026-05-07 00:28 45.59640 -73.74890 4685 ft 267 kts 40°
2026-05-07 00:28 45.60992 -73.73115 4484 ft 259 kts 40°
2026-05-07 00:28 45.62286 -73.71410 4378 ft 247 kts 40°
2026-05-07 00:28 45.63521 -73.69783 4277 ft 236 kts 39°
2026-05-07 00:29 45.64702 -73.68227 4167 ft 227 kts 39°
2026-05-07 00:29 45.65856 -73.66710 3941 ft 224 kts 39°
2026-05-07 00:30 45.66760 -73.60733 3041 ft 228 kts 129°
2026-05-07 00:30 45.65677 -73.59026 3002 ft 232 kts 136°
2026-05-07 00:30 45.64444 -73.57591 3012 ft 228 kts 153°
2026-05-07 00:30 45.62954 -73.56985 3005 ft 222 kts 187°
2026-05-07 00:31 45.61561 -73.57728 3010 ft 214 kts 218°
2026-05-07 00:31 45.60370 -73.59001 3002 ft 213 kts 222°
2026-05-07 00:31 45.59211 -73.60326 2989 ft 214 kts 223°
2026-05-07 00:31 45.58060 -73.61668 2741 ft 214 kts 223°
2026-05-07 00:32 45.56935 -73.62998 2438 ft 212 kts 223°
2026-05-07 00:32 45.55811 -73.64344 2144 ft 209 kts 223°
2026-05-07 00:32 45.54709 -73.65681 1854 ft 207 kts 223°
2026-05-07 00:32 45.53621 -73.67017 1567 ft 205 kts 223°
2026-05-07 00:33 45.52549 -73.68345 1282 ft 202 kts 223°
2026-05-07 00:33 45.51522 -73.69626 1005 ft 189 kts 223°
2026-05-07 00:33 45.50589 -73.70800 744 ft 171 kts 222°
2026-05-07 00:33 45.49726 -73.71837 539 ft 155 kts 217°
2026-05-07 00:34 45.48929 -73.72746 386 ft 139 kts 225°
2026-05-07 00:34 45.48268 -73.73677 164 ft 134 kts 222°
2026-05-07 00:34 45.47598 -73.74556 109 ft 113 kts 222°
2026-05-07 00:34 45.47172 -73.75110 110 ft 55 kts 223°
2026-05-07 00:35 45.46944 -73.75405 106 ft 41 kts 223°
2026-05-07 00:35 45.46796 -73.75549 109 ft 25 kts 205°
2026-05-07 00:35 45.46612 -73.75625 111 ft 30 kts 193°
2026-05-07 00:35 45.46525 -73.75654 111 ft 17 kts 194°
2026-05-07 00:36 45.46453 -73.75676 110 ft 0 kts 191°
2026-05-07 00:37 45.46452 -73.75676 110 ft 2 kts 191°
2026-05-07 00:37 45.46432 -73.75682 108 ft 0 kts 191°
2026-05-07 00:38 45.46413 -73.75687 108 ft 9 kts 192°
2026-05-07 00:38 45.46320 -73.75715 106 ft 18 kts 191°
2026-05-07 00:39 45.46215 -73.75725 106 ft 7 kts 180°
2026-05-07 00:39 45.46139 -73.75724 105 ft 6 kts 180°
2026-05-07 00:39 45.46085 -73.75730 104 ft 15 kts 197°
2026-05-07 00:39 45.46043 -73.75860 104 ft 16 kts 244°
2026-05-07 00:40 45.45953 -73.75925 104 ft 16 kts 192°
2026-05-07 00:40 45.45841 -73.75919 105 ft 16 kts 167°